Year,Month,Day,Hour,Minute,Value (Times are PST for temperature in C)
2015,07,29,00,00,19.30
2015,07,29,00,01,19.30
2015,07,29,00,02,19.30
2015,07,29,00,03,19.30
2015,07,29,00,04,19.30
2015,07,29,00,05,19.30
2015,07,29,00,06,19.30
2015,07,29,00,07,19.30
2015,07,29,00,08,19.30
2015,07,29,00,09,19.20
2015,07,29,00,10,19.20
2015,07,29,00,11,19.20
2015,07,29,00,12,19.20
2015,07,29,00,13,19.20
2015,07,29,00,14,19.20
2015,07,29,00,15,19.20
2015,07,29,00,16,19.20
2015,07,29,00,17,19.30
2015,07,29,00,18,19.30
2015,07,29,00,19,19.30
2015,07,29,00,20,19.30
2015,07,29,00,21,19.30
2015,07,29,00,22,19.30
2015,07,29,00,23,19.30
2015,07,29,00,24,19.30
2015,07,29,00,25,19.30
2015,07,29,00,26,19.30
2015,07,29,00,27,19.30
2015,07,29,00,28,19.30
2015,07,29,00,29,19.30
2015,07,29,00,30,19.30
2015,07,29,00,31,19.30
2015,07,29,00,32,19.30
2015,07,29,00,33,19.30
2015,07,29,00,34,19.20
2015,07,29,00,35,19.20
2015,07,29,00,36,19.20
2015,07,29,00,37,19.20
2015,07,29,00,38,19.20
2015,07,29,00,39,19.10
2015,07,29,00,40,19.10
2015,07,29,00,41,19.10
2015,07,29,00,42,19.00
2015,07,29,00,43,19.00
2015,07,29,00,44,19.00
2015,07,29,00,45,18.90
2015,07,29,00,46,18.90
2015,07,29,00,47,18.90
2015,07,29,00,48,18.80
2015,07,29,00,49,18.80
2015,07,29,00,50,18.80
2015,07,29,00,51,18.70
2015,07,29,00,52,18.70
2015,07,29,00,53,18.70
2015,07,29,00,54,18.70
2015,07,29,00,55,18.70
2015,07,29,00,56,18.70
2015,07,29,00,57,18.70
2015,07,29,00,58,18.70
2015,07,29,00,59,18.70
2015,07,29,01,00,18.60
2015,07,29,01,01,18.60
2015,07,29,01,02,18.60
2015,07,29,01,03,18.60
2015,07,29,01,04,18.60
2015,07,29,01,05,18.60
2015,07,29,01,06,18.60
2015,07,29,01,07,18.60
2015,07,29,01,08,18.50
2015,07,29,01,09,18.50
2015,07,29,01,10,18.50
2015,07,29,01,11,18.40
2015,07,29,01,12,18.40
2015,07,29,01,13,18.40
2015,07,29,01,14,18.40
2015,07,29,01,15,18.30
2015,07,29,01,16,18.30
2015,07,29,01,17,18.30
2015,07,29,01,18,18.30
2015,07,29,01,19,18.30
2015,07,29,01,20,18.20
2015,07,29,01,21,18.20
2015,07,29,01,22,18.20
2015,07,29,01,23,18.20
2015,07,29,01,24,18.10
2015,07,29,01,25,18.10
2015,07,29,01,26,18.10
2015,07,29,01,27,18.10
2015,07,29,01,28,18.00
2015,07,29,01,29,18.00
2015,07,29,01,30,18.00
2015,07,29,01,31,18.00
2015,07,29,01,32,18.00
2015,07,29,01,33,18.00
2015,07,29,01,34,18.00
2015,07,29,01,35,18.00
2015,07,29,01,36,18.10
2015,07,29,01,37,18.10
2015,07,29,01,38,18.10
2015,07,29,01,39,18.10
2015,07,29,01,40,18.10
2015,07,29,01,41,18.20
2015,07,29,01,42,18.20
2015,07,29,01,43,18.20
2015,07,29,01,44,18.20
2015,07,29,01,45,18.20
2015,07,29,01,46,18.20
2015,07,29,01,47,18.20
2015,07,29,01,48,18.20
2015,07,29,01,49,18.20
2015,07,29,01,50,18.20
2015,07,29,01,51,18.10
2015,07,29,01,52,18.10
2015,07,29,01,53,18.10
2015,07,29,01,54,18.10
2015,07,29,01,55,18.10
2015,07,29,01,56,18.10
2015,07,29,01,57,18.10
2015,07,29,01,58,18.10
2015,07,29,01,59,18.10
2015,07,29,02,00,18.10
2015,07,29,02,01,18.10
2015,07,29,02,02,18.10
2015,07,29,02,03,18.00
2015,07,29,02,04,18.00
2015,07,29,02,05,18.00
2015,07,29,02,06,18.00
2015,07,29,02,07,17.90
2015,07,29,02,08,17.90
2015,07,29,02,09,17.90
2015,07,29,02,10,17.90
2015,07,29,02,11,17.90
2015,07,29,02,12,17.80
2015,07,29,02,13,17.80
2015,07,29,02,14,17.80
2015,07,29,02,15,17.80
2015,07,29,02,16,17.70
2015,07,29,02,17,17.70
2015,07,29,02,18,17.70
2015,07,29,02,19,17.70
2015,07,29,02,20,17.60
2015,07,29,02,21,17.60
2015,07,29,02,22,17.60
2015,07,29,02,23,17.50
2015,07,29,02,24,17.50
2015,07,29,02,25,17.40
2015,07,29,02,26,17.40
2015,07,29,02,27,17.40
2015,07,29,02,28,17.30
2015,07,29,02,29,17.30
2015,07,29,02,30,17.30
2015,07,29,02,31,17.20
2015,07,29,02,32,17.20
2015,07,29,02,33,17.20
2015,07,29,02,34,17.10
2015,07,29,02,35,17.10
2015,07,29,02,36,17.10
2015,07,29,02,37,17.10
2015,07,29,02,38,17.00
2015,07,29,02,39,17.00
2015,07,29,02,40,17.00
2015,07,29,02,41,16.90
2015,07,29,02,42,16.90
2015,07,29,02,43,16.90
2015,07,29,02,44,16.90
2015,07,29,02,45,16.90
2015,07,29,02,46,16.90
2015,07,29,02,47,16.90
2015,07,29,02,48,16.90
2015,07,29,02,49,16.90
2015,07,29,02,50,16.90
2015,07,29,02,51,16.90
2015,07,29,02,52,16.90
2015,07,29,02,53,16.80
2015,07,29,02,54,16.90
2015,07,29,02,55,16.90
2015,07,29,02,56,16.90
2015,07,29,02,57,16.90
2015,07,29,02,58,16.90
2015,07,29,02,59,16.90
2015,07,29,03,00,16.90
2015,07,29,03,01,16.90
2015,07,29,03,02,17.00
2015,07,29,03,03,17.00
2015,07,29,03,04,17.00
2015,07,29,03,05,17.00
2015,07,29,03,06,17.00
2015,07,29,03,07,17.00
2015,07,29,03,08,17.10
2015,07,29,03,09,17.10
2015,07,29,03,10,17.10
2015,07,29,03,11,17.00
2015,07,29,03,12,17.00
2015,07,29,03,13,17.00
2015,07,29,03,14,17.00
2015,07,29,03,15,17.00
2015,07,29,03,16,17.00
2015,07,29,03,17,17.00
2015,07,29,03,18,17.00
2015,07,29,03,19,17.00
2015,07,29,03,20,17.00
2015,07,29,03,21,17.00
2015,07,29,03,22,17.00
2015,07,29,03,23,17.00
2015,07,29,03,24,17.00
2015,07,29,03,25,17.00
2015,07,29,03,26,17.00
2015,07,29,03,27,17.00
2015,07,29,03,28,17.00
2015,07,29,03,29,17.00
2015,07,29,03,30,16.90
2015,07,29,03,31,16.90
2015,07,29,03,32,16.90
2015,07,29,03,33,16.90
2015,07,29,03,34,16.80
2015,07,29,03,35,16.80
2015,07,29,03,36,16.80
2015,07,29,03,37,16.80
2015,07,29,03,38,16.80
2015,07,29,03,39,16.80
2015,07,29,03,40,16.80
2015,07,29,03,41,16.70
2015,07,29,03,42,16.70
2015,07,29,03,43,16.70
2015,07,29,03,44,16.70
2015,07,29,03,45,16.70
2015,07,29,03,46,16.70
2015,07,29,03,47,16.70
2015,07,29,03,48,16.70
2015,07,29,03,49,16.70
2015,07,29,03,50,16.70
2015,07,29,03,51,16.70
2015,07,29,03,52,16.70
2015,07,29,03,53,16.70
2015,07,29,03,54,16.80
2015,07,29,03,55,16.80
2015,07,29,03,56,16.80
2015,07,29,03,57,16.80
2015,07,29,03,58,16.80
2015,07,29,03,59,16.80
2015,07,29,04,00,16.80
2015,07,29,04,01,16.70
2015,07,29,04,02,16.70
2015,07,29,04,03,16.70
2015,07,29,04,04,16.70
2015,07,29,04,05,16.70
2015,07,29,04,06,16.70
2015,07,29,04,07,16.70
2015,07,29,04,08,16.60
2015,07,29,04,09,16.60
2015,07,29,04,10,16.60
2015,07,29,04,11,16.60
2015,07,29,04,12,16.50
2015,07,29,04,13,16.50
2015,07,29,04,14,16.50
2015,07,29,04,15,16.40
2015,07,29,04,16,16.50
2015,07,29,04,17,16.50
2015,07,29,04,18,16.50
2015,07,29,04,19,16.60
2015,07,29,04,20,16.60
2015,07,29,04,21,16.60
2015,07,29,04,22,16.60
2015,07,29,04,23,16.60
2015,07,29,04,24,16.60
2015,07,29,04,25,16.60
2015,07,29,04,26,16.50
2015,07,29,04,27,16.50
2015,07,29,04,28,16.50
2015,07,29,04,29,16.40
2015,07,29,04,30,16.40
2015,07,29,04,31,16.40
2015,07,29,04,32,16.40
2015,07,29,04,33,16.30
2015,07,29,04,34,16.30
2015,07,29,04,35,16.30
2015,07,29,04,36,16.30
2015,07,29,04,37,16.30
2015,07,29,04,38,16.30
2015,07,29,04,39,16.30
2015,07,29,04,40,16.30
2015,07,29,04,41,16.20
2015,07,29,04,42,16.20
2015,07,29,04,43,16.20
2015,07,29,04,44,16.20
2015,07,29,04,45,16.20
2015,07,29,04,46,16.20
2015,07,29,04,47,16.20
2015,07,29,04,48,16.20
2015,07,29,04,49,16.20
2015,07,29,04,50,16.20
2015,07,29,04,51,16.20
2015,07,29,04,52,16.20
2015,07,29,04,53,16.20
2015,07,29,04,54,16.10
2015,07,29,04,55,16.10
2015,07,29,04,56,16.10
2015,07,29,04,57,16.10
2015,07,29,04,58,16.10
2015,07,29,04,59,16.10
2015,07,29,05,00,16.10
2015,07,29,05,01,16.10
2015,07,29,05,02,16.10
2015,07,29,05,03,16.10
2015,07,29,05,04,16.00
2015,07,29,05,05,16.00
2015,07,29,05,06,16.00
2015,07,29,05,07,16.00
2015,07,29,05,08,16.00
2015,07,29,05,09,16.00
2015,07,29,05,10,15.90
2015,07,29,05,11,15.90
2015,07,29,05,12,15.90
2015,07,29,05,13,15.90
2015,07,29,05,14,15.90
2015,07,29,05,15,15.90
2015,07,29,05,16,15.90
2015,07,29,05,17,15.90
2015,07,29,05,18,15.90
2015,07,29,05,19,15.90
2015,07,29,05,20,15.90
2015,07,29,05,21,15.90
2015,07,29,05,22,15.90
2015,07,29,05,23,15.90
2015,07,29,05,24,15.90
2015,07,29,05,25,15.80
2015,07,29,05,26,15.80
2015,07,29,05,27,15.90
2015,07,29,05,28,15.90
2015,07,29,05,29,15.90
2015,07,29,05,30,15.90
2015,07,29,05,31,15.90
2015,07,29,05,32,15.90
2015,07,29,05,33,15.90
2015,07,29,05,34,15.90
2015,07,29,05,35,15.90
2015,07,29,05,36,15.90
2015,07,29,05,37,15.90
2015,07,29,05,38,15.90
2015,07,29,05,39,15.90
2015,07,29,05,40,15.90
2015,07,29,05,41,15.90
2015,07,29,05,42,15.90
2015,07,29,05,43,15.80
2015,07,29,05,44,15.80
2015,07,29,05,45,15.80
2015,07,29,05,46,15.80
2015,07,29,05,47,15.80
2015,07,29,05,48,15.80
2015,07,29,05,49,15.80
2015,07,29,05,50,15.80
2015,07,29,05,51,15.70
2015,07,29,05,52,15.70
2015,07,29,05,53,15.70
2015,07,29,05,54,15.70
2015,07,29,05,55,15.70
2015,07,29,05,56,15.70
2015,07,29,05,57,15.70
2015,07,29,05,58,15.70
2015,07,29,05,59,15.70
2015,07,29,06,00,15.70
2015,07,29,06,01,15.70
2015,07,29,06,02,15.70
2015,07,29,06,03,15.70
2015,07,29,06,04,15.70
2015,07,29,06,05,15.70
2015,07,29,06,06,15.70
2015,07,29,06,07,15.70
2015,07,29,06,08,15.70
2015,07,29,06,09,15.70
2015,07,29,06,10,15.80
2015,07,29,06,11,15.80
2015,07,29,06,12,15.80
2015,07,29,06,13,15.80
2015,07,29,06,14,15.80
2015,07,29,06,15,15.80
2015,07,29,06,16,15.80
2015,07,29,06,17,15.80
2015,07,29,06,18,15.80
2015,07,29,06,19,15.80
2015,07,29,06,20,15.80
2015,07,29,06,21,15.80
2015,07,29,06,22,15.80
2015,07,29,06,23,15.80
2015,07,29,06,24,15.80
2015,07,29,06,25,15.80
2015,07,29,06,26,15.80
2015,07,29,06,27,15.80
2015,07,29,06,28,15.80
2015,07,29,06,29,15.80
2015,07,29,06,30,15.80
2015,07,29,06,31,15.80
2015,07,29,06,32,15.80
2015,07,29,06,33,15.80
2015,07,29,06,34,15.80
2015,07,29,06,35,15.80
2015,07,29,06,36,15.80
2015,07,29,06,37,15.80
2015,07,29,06,38,15.80
2015,07,29,06,39,15.80
2015,07,29,06,40,15.80
2015,07,29,06,41,15.90
2015,07,29,06,42,15.90
2015,07,29,06,43,15.90
2015,07,29,06,44,15.90
2015,07,29,06,45,15.90
2015,07,29,06,46,15.90
2015,07,29,06,47,15.90
2015,07,29,06,48,15.90
2015,07,29,06,49,15.90
2015,07,29,06,50,15.90
2015,07,29,06,51,16.00
2015,07,29,06,52,15.90
2015,07,29,06,53,15.90
2015,07,29,06,54,16.00
2015,07,29,06,55,16.00
2015,07,29,06,56,16.00
2015,07,29,06,57,16.10
2015,07,29,06,58,16.10
2015,07,29,06,59,16.10
2015,07,29,07,00,16.20
2015,07,29,07,01,16.20
2015,07,29,07,02,16.20
2015,07,29,07,03,16.20
2015,07,29,07,04,16.20
2015,07,29,07,05,16.20
2015,07,29,07,06,16.20
2015,07,29,07,07,16.20
2015,07,29,07,08,16.30
2015,07,29,07,09,16.30
2015,07,29,07,10,16.30
2015,07,29,07,11,16.30
2015,07,29,07,12,16.30
2015,07,29,07,13,16.40
2015,07,29,07,14,16.40
2015,07,29,07,15,16.40
2015,07,29,07,16,16.40
2015,07,29,07,17,16.40
2015,07,29,07,18,16.40
2015,07,29,07,19,16.50
2015,07,29,07,20,16.50
2015,07,29,07,21,16.50
2015,07,29,07,22,16.50
2015,07,29,07,23,16.50
2015,07,29,07,24,16.60
2015,07,29,07,25,16.60
2015,07,29,07,26,16.60
2015,07,29,07,27,16.60
2015,07,29,07,28,16.70
2015,07,29,07,29,16.70
2015,07,29,07,30,16.70
2015,07,29,07,31,16.80
2015,07,29,07,32,16.80
2015,07,29,07,33,16.80
2015,07,29,07,34,16.80
2015,07,29,07,35,16.90
2015,07,29,07,36,16.90
2015,07,29,07,37,16.90
2015,07,29,07,38,17.00
2015,07,29,07,39,17.00
2015,07,29,07,40,17.00
2015,07,29,07,41,17.10
2015,07,29,07,42,17.10
2015,07,29,07,43,17.10
2015,07,29,07,44,17.10
2015,07,29,07,45,17.20
2015,07,29,07,46,17.20
2015,07,29,07,47,17.20
2015,07,29,07,48,17.20
2015,07,29,07,49,17.20
2015,07,29,07,50,17.30
2015,07,29,07,51,17.30
2015,07,29,07,52,17.40
2015,07,29,07,53,17.40
2015,07,29,07,54,17.40
2015,07,29,07,55,17.50
2015,07,29,07,56,17.50
2015,07,29,07,57,17.60
2015,07,29,07,58,17.60
2015,07,29,07,59,17.60
2015,07,29,08,00,17.70
2015,07,29,08,01,17.70
2015,07,29,08,02,17.70
2015,07,29,08,03,17.70
2015,07,29,08,04,17.60
2015,07,29,08,05,17.60
2015,07,29,08,06,17.60
2015,07,29,08,07,17.50
2015,07,29,08,08,17.50
2015,07,29,08,09,17.40
2015,07,29,08,10,17.40
2015,07,29,08,11,17.40
2015,07,29,08,12,17.30
2015,07,29,08,13,17.30
2015,07,29,08,14,17.30
2015,07,29,08,15,17.30
2015,07,29,08,16,17.30
2015,07,29,08,17,17.30
2015,07,29,08,18,17.30
2015,07,29,08,19,17.30
2015,07,29,08,20,17.40
2015,07,29,08,21,17.40
2015,07,29,08,22,17.40
2015,07,29,08,23,17.50
2015,07,29,08,24,17.50
2015,07,29,08,25,17.60
2015,07,29,08,26,17.60
2015,07,29,08,27,17.60
2015,07,29,08,28,17.70
2015,07,29,08,29,17.70
2015,07,29,08,30,17.80
2015,07,29,08,31,17.80
2015,07,29,08,32,17.90
2015,07,29,08,33,18.00
2015,07,29,08,34,18.10
2015,07,29,08,35,18.10
2015,07,29,08,36,18.10
2015,07,29,08,37,18.20
2015,07,29,08,38,18.20
2015,07,29,08,39,18.10
2015,07,29,08,40,18.10
2015,07,29,08,41,18.10
2015,07,29,08,42,18.10
2015,07,29,08,43,18.00
2015,07,29,08,44,18.00
2015,07,29,08,45,18.10
2015,07,29,08,46,18.10
2015,07,29,08,47,18.10
2015,07,29,08,48,18.10
2015,07,29,08,49,18.10
2015,07,29,08,50,18.10
2015,07,29,08,51,18.20
2015,07,29,08,52,18.20
2015,07,29,08,53,18.20
2015,07,29,08,54,18.20
2015,07,29,08,55,18.30
2015,07,29,08,56,18.40
2015,07,29,08,57,18.50
2015,07,29,08,58,18.50
2015,07,29,08,59,18.60
2015,07,29,09,00,18.60
2015,07,29,09,01,18.70
2015,07,29,09,02,18.70
2015,07,29,09,03,18.80
2015,07,29,09,04,18.80
2015,07,29,09,05,18.90
2015,07,29,09,06,19.00
2015,07,29,09,07,19.00
2015,07,29,09,08,19.00
2015,07,29,09,09,19.00
2015,07,29,09,10,19.00
2015,07,29,09,11,19.10
2015,07,29,09,12,19.10
2015,07,29,09,13,19.10
2015,07,29,09,14,19.10
2015,07,29,09,15,19.20
2015,07,29,09,16,19.20
2015,07,29,09,17,19.20
2015,07,29,09,18,19.20
2015,07,29,09,19,19.20
2015,07,29,09,20,19.20
2015,07,29,09,21,19.20
2015,07,29,09,22,19.20
2015,07,29,09,23,19.20
2015,07,29,09,24,19.20
2015,07,29,09,25,19.30
2015,07,29,09,26,19.30
2015,07,29,09,27,19.30
2015,07,29,09,28,19.30
2015,07,29,09,29,19.30
2015,07,29,09,30,19.40
2015,07,29,09,31,19.40
2015,07,29,09,32,19.40
2015,07,29,09,33,19.40
2015,07,29,09,34,19.40
2015,07,29,09,35,19.40
2015,07,29,09,36,19.40
2015,07,29,09,37,19.40
2015,07,29,09,38,19.40
2015,07,29,09,39,19.40
2015,07,29,09,40,19.40
2015,07,29,09,41,19.40
2015,07,29,09,42,19.40
2015,07,29,09,43,19.40
2015,07,29,09,44,19.50
2015,07,29,09,45,19.50
2015,07,29,09,46,19.60
2015,07,29,09,47,19.60
2015,07,29,09,48,19.70
2015,07,29,09,49,19.70
2015,07,29,09,50,19.80
2015,07,29,09,51,19.80
2015,07,29,09,52,19.80
2015,07,29,09,53,19.80
2015,07,29,09,54,19.80
2015,07,29,09,55,19.80
2015,07,29,09,56,19.80
2015,07,29,09,57,19.80
2015,07,29,09,58,19.90
2015,07,29,09,59,20.00
2015,07,29,10,00,20.00
2015,07,29,10,01,20.10
2015,07,29,10,02,20.10
2015,07,29,10,03,20.00
2015,07,29,10,04,19.90
2015,07,29,10,05,19.80
2015,07,29,10,06,19.70
2015,07,29,10,07,19.70
2015,07,29,10,08,19.70
2015,07,29,10,09,19.70
2015,07,29,10,10,19.70
2015,07,29,10,11,19.80
2015,07,29,10,12,19.80
2015,07,29,10,13,19.80
2015,07,29,10,14,19.90
2015,07,29,10,15,19.90
2015,07,29,10,16,19.90
2015,07,29,10,17,19.90
2015,07,29,10,18,19.90
2015,07,29,10,19,19.90
2015,07,29,10,20,19.90
2015,07,29,10,21,19.90
2015,07,29,10,22,20.00
2015,07,29,10,23,20.00
2015,07,29,10,24,20.00
2015,07,29,10,25,20.00
2015,07,29,10,26,20.00
2015,07,29,10,27,20.10
2015,07,29,10,28,20.10
2015,07,29,10,29,20.20
2015,07,29,10,30,20.20
2015,07,29,10,31,20.30
2015,07,29,10,32,20.30
2015,07,29,10,33,20.40
2015,07,29,10,34,20.40
2015,07,29,10,35,20.50
2015,07,29,10,36,20.60
2015,07,29,10,37,20.60
2015,07,29,10,38,20.60
2015,07,29,10,39,20.60
2015,07,29,10,40,20.50
2015,07,29,10,41,20.50
2015,07,29,10,42,20.50
2015,07,29,10,43,20.60
2015,07,29,10,44,20.60
2015,07,29,10,45,20.70
2015,07,29,10,46,20.70
2015,07,29,10,47,20.70
2015,07,29,10,48,20.80
2015,07,29,10,49,20.80
2015,07,29,10,50,20.80
2015,07,29,10,51,20.80
2015,07,29,10,52,20.70
2015,07,29,10,53,20.70
2015,07,29,10,54,20.70
2015,07,29,10,55,20.70
2015,07,29,10,56,20.80
2015,07,29,10,57,20.80
2015,07,29,10,58,20.80
2015,07,29,10,59,20.70
2015,07,29,11,00,20.70
2015,07,29,11,01,20.80
2015,07,29,11,02,20.80
2015,07,29,11,03,20.90
2015,07,29,11,04,20.90
2015,07,29,11,05,20.90
2015,07,29,11,06,20.90
2015,07,29,11,07,20.80
2015,07,29,11,08,20.80
2015,07,29,11,09,20.80
2015,07,29,11,10,20.80
2015,07,29,11,11,20.80
2015,07,29,11,12,20.80
2015,07,29,11,13,20.90
2015,07,29,11,14,20.90
2015,07,29,11,15,21.00
2015,07,29,11,16,21.10
2015,07,29,11,17,21.10
2015,07,29,11,18,21.10
2015,07,29,11,19,21.10
2015,07,29,11,20,21.10
2015,07,29,11,21,21.10
2015,07,29,11,22,21.20
2015,07,29,11,23,21.20
2015,07,29,11,24,21.20
2015,07,29,11,25,21.30
2015,07,29,11,26,21.30
2015,07,29,11,27,21.30
2015,07,29,11,28,21.40
2015,07,29,11,29,21.40
2015,07,29,11,30,21.50
2015,07,29,11,31,21.60
2015,07,29,11,32,21.60
2015,07,29,11,33,21.70
2015,07,29,11,34,21.70
2015,07,29,11,35,21.80
2015,07,29,11,36,21.90
2015,07,29,11,37,22.00
2015,07,29,11,38,22.10
2015,07,29,11,39,22.20
2015,07,29,11,40,22.20
2015,07,29,11,41,22.20
2015,07,29,11,42,22.20
2015,07,29,11,43,22.30
2015,07,29,11,44,22.30
2015,07,29,11,45,22.40
2015,07,29,11,46,22.40
2015,07,29,11,47,22.50
2015,07,29,11,48,22.60
2015,07,29,11,49,22.60
2015,07,29,11,50,22.70
2015,07,29,11,51,22.70
2015,07,29,11,52,22.80
2015,07,29,11,53,22.80
2015,07,29,11,54,22.80
2015,07,29,11,55,22.80
2015,07,29,11,56,22.80
2015,07,29,11,57,22.80
2015,07,29,11,58,22.80
2015,07,29,11,59,22.80
2015,07,29,12,00,22.90
2015,07,29,12,01,22.90
2015,07,29,12,02,23.00
2015,07,29,12,03,23.00
2015,07,29,12,04,23.10
2015,07,29,12,05,23.20
2015,07,29,12,06,23.30
2015,07,29,12,07,23.40
2015,07,29,12,08,23.50
2015,07,29,12,09,23.60
2015,07,29,12,10,23.70
2015,07,29,12,11,23.70
2015,07,29,12,12,23.80
2015,07,29,12,13,23.90
2015,07,29,12,14,24.00
2015,07,29,12,15,24.00
2015,07,29,12,16,24.10
2015,07,29,12,17,24.10
2015,07,29,12,18,24.10
2015,07,29,12,19,24.10
2015,07,29,12,20,24.10
2015,07,29,12,21,24.10
2015,07,29,12,22,24.10
2015,07,29,12,23,24.10
2015,07,29,12,24,24.10
2015,07,29,12,25,24.00
2015,07,29,12,26,23.90
2015,07,29,12,27,23.90
2015,07,29,12,28,23.70
2015,07,29,12,29,23.60
2015,07,29,12,30,23.50
2015,07,29,12,31,23.50
2015,07,29,12,32,23.40
2015,07,29,12,33,23.30
2015,07,29,12,34,23.20
2015,07,29,12,35,23.10
2015,07,29,12,36,22.90
2015,07,29,12,37,22.80
2015,07,29,12,38,22.70
2015,07,29,12,39,22.70
2015,07,29,12,40,22.70
2015,07,29,12,41,22.70
2015,07,29,12,42,22.90
2015,07,29,12,43,23.00
2015,07,29,12,44,23.10
2015,07,29,12,45,23.20
2015,07,29,12,46,23.30
2015,07,29,12,47,23.40
2015,07,29,12,48,23.50
2015,07,29,12,49,23.60
2015,07,29,12,50,23.60
2015,07,29,12,51,23.70
2015,07,29,12,52,23.70
2015,07,29,12,53,23.70
2015,07,29,12,54,23.80
2015,07,29,12,55,23.90
2015,07,29,12,56,24.00
2015,07,29,12,57,24.00
2015,07,29,12,58,24.10
2015,07,29,12,59,24.30
2015,07,29,13,00,24.40
2015,07,29,13,01,24.40
2015,07,29,13,02,24.40
2015,07,29,13,03,24.40
2015,07,29,13,04,24.40
2015,07,29,13,05,24.50
2015,07,29,13,06,24.60
2015,07,29,13,07,24.60
2015,07,29,13,08,24.60
2015,07,29,13,09,24.50
2015,07,29,13,10,24.60
2015,07,29,13,11,24.60
2015,07,29,13,12,24.60
2015,07,29,13,13,24.60
2015,07,29,13,14,24.60
2015,07,29,13,15,24.50
2015,07,29,13,16,24.50
2015,07,29,13,17,24.40
2015,07,29,13,18,24.40
2015,07,29,13,19,24.40
2015,07,29,13,20,24.40
2015,07,29,13,21,24.30
2015,07,29,13,22,24.40
2015,07,29,13,23,24.40
2015,07,29,13,24,24.50
2015,07,29,13,25,24.60
2015,07,29,13,26,24.60
2015,07,29,13,27,24.60
2015,07,29,13,28,24.70
2015,07,29,13,29,24.80
2015,07,29,13,30,24.90
2015,07,29,13,31,25.00
2015,07,29,13,32,25.10
2015,07,29,13,33,25.10
2015,07,29,13,34,25.10
2015,07,29,13,35,25.10
2015,07,29,13,36,25.10
2015,07,29,13,37,25.10
2015,07,29,13,38,25.20
2015,07,29,13,39,25.20
2015,07,29,13,40,25.20
2015,07,29,13,41,25.20
2015,07,29,13,42,25.30
2015,07,29,13,43,25.30
2015,07,29,13,44,25.30
2015,07,29,13,45,25.20
2015,07,29,13,46,25.20
2015,07,29,13,47,25.20
2015,07,29,13,48,25.10
2015,07,29,13,49,25.10
2015,07,29,13,50,25.10
2015,07,29,13,51,25.20
2015,07,29,13,52,25.20
2015,07,29,13,53,25.20
2015,07,29,13,54,25.20
2015,07,29,13,55,25.20
2015,07,29,13,56,25.20
2015,07,29,13,57,25.20
2015,07,29,13,58,25.20
2015,07,29,13,59,25.30
2015,07,29,14,00,25.40
2015,07,29,14,01,25.50
2015,07,29,14,02,25.50
2015,07,29,14,03,25.60
2015,07,29,14,04,25.60
2015,07,29,14,05,25.60
2015,07,29,14,06,25.60
2015,07,29,14,07,25.50
2015,07,29,14,08,25.50
2015,07,29,14,09,25.60
2015,07,29,14,10,25.60
2015,07,29,14,11,25.60
2015,07,29,14,12,25.70
2015,07,29,14,13,25.70
2015,07,29,14,14,25.80
2015,07,29,14,15,25.90
2015,07,29,14,16,26.00
2015,07,29,14,17,26.10
2015,07,29,14,18,26.20
2015,07,29,14,19,26.20
2015,07,29,14,20,26.20
2015,07,29,14,21,26.10
2015,07,29,14,22,26.10
2015,07,29,14,23,26.10
2015,07,29,14,24,26.00
2015,07,29,14,25,26.00
2015,07,29,14,26,25.90
2015,07,29,14,27,25.90
2015,07,29,14,28,25.90
2015,07,29,14,29,25.90
2015,07,29,14,30,25.90
2015,07,29,14,31,25.90
2015,07,29,14,32,25.90
2015,07,29,14,33,25.90
2015,07,29,14,34,26.00
2015,07,29,14,35,26.20
2015,07,29,14,36,26.30
2015,07,29,14,37,26.40
2015,07,29,14,38,26.40
2015,07,29,14,39,26.40
2015,07,29,14,40,26.30
2015,07,29,14,41,26.30
2015,07,29,14,42,26.30
2015,07,29,14,43,26.30
2015,07,29,14,44,26.30
2015,07,29,14,45,26.30
2015,07,29,14,46,26.20
2015,07,29,14,47,26.20
2015,07,29,14,48,26.10
2015,07,29,14,49,26.10
2015,07,29,14,50,26.20
2015,07,29,14,51,26.20
2015,07,29,14,52,26.30
2015,07,29,14,53,26.30
2015,07,29,14,54,26.30
2015,07,29,14,55,26.40
2015,07,29,14,56,26.40
2015,07,29,14,57,26.40
2015,07,29,14,58,26.40
2015,07,29,14,59,26.50
2015,07,29,15,00,26.50
2015,07,29,15,01,26.50
2015,07,29,15,02,26.40
2015,07,29,15,03,26.40
2015,07,29,15,04,26.40
2015,07,29,15,05,26.40
2015,07,29,15,06,26.40
2015,07,29,15,07,26.40
2015,07,29,15,08,26.40
2015,07,29,15,09,26.40
2015,07,29,15,10,26.30
2015,07,29,15,11,26.30
2015,07,29,15,12,26.30
2015,07,29,15,13,26.40
2015,07,29,15,14,26.40
2015,07,29,15,15,26.30
2015,07,29,15,16,26.30
2015,07,29,15,17,26.30
2015,07,29,15,18,26.40
2015,07,29,15,19,26.40
2015,07,29,15,20,26.40
2015,07,29,15,21,26.40
2015,07,29,15,22,26.40
2015,07,29,15,23,26.40
2015,07,29,15,24,26.50
2015,07,29,15,25,26.50
2015,07,29,15,26,26.60
2015,07,29,15,27,26.70
2015,07,29,15,28,26.60
2015,07,29,15,29,26.60
2015,07,29,15,30,26.70
2015,07,29,15,31,26.70
2015,07,29,15,32,26.80
2015,07,29,15,33,26.80
2015,07,29,15,34,26.80
2015,07,29,15,35,26.80
2015,07,29,15,36,26.90
2015,07,29,15,37,27.00
2015,07,29,15,38,27.00
2015,07,29,15,39,27.10
2015,07,29,15,40,27.10
2015,07,29,15,41,27.20
2015,07,29,15,42,27.20
2015,07,29,15,43,27.20
2015,07,29,15,44,27.20
2015,07,29,15,45,27.20
2015,07,29,15,46,27.20
2015,07,29,15,47,27.20
2015,07,29,15,48,27.20
2015,07,29,15,49,27.20
2015,07,29,15,50,27.20
2015,07,29,15,51,27.20
2015,07,29,15,52,27.20
2015,07,29,15,53,27.20
2015,07,29,15,54,27.20
2015,07,29,15,55,27.20
2015,07,29,15,56,27.20
2015,07,29,15,57,27.20
2015,07,29,15,58,27.20
2015,07,29,15,59,27.20
2015,07,29,16,00,27.20
2015,07,29,16,01,27.10
2015,07,29,16,02,27.10
2015,07,29,16,03,27.10
2015,07,29,16,04,27.10
2015,07,29,16,05,27.10
2015,07,29,16,06,27.10
2015,07,29,16,07,27.10
2015,07,29,16,08,27.10
2015,07,29,16,09,27.00
2015,07,29,16,10,26.90
2015,07,29,16,11,26.90
2015,07,29,16,12,26.90
2015,07,29,16,13,26.80
2015,07,29,16,14,26.80
2015,07,29,16,15,26.70
2015,07,29,16,16,26.70
2015,07,29,16,17,26.70
2015,07,29,16,18,26.60
2015,07,29,16,19,26.50
2015,07,29,16,20,26.50
2015,07,29,16,21,26.50
2015,07,29,16,22,26.50
2015,07,29,16,23,26.60
2015,07,29,16,24,26.70
2015,07,29,16,25,26.80
2015,07,29,16,26,26.80
2015,07,29,16,27,26.90
2015,07,29,16,28,27.00
2015,07,29,16,29,27.00
2015,07,29,16,30,27.00
2015,07,29,16,31,26.90
2015,07,29,16,32,26.90
2015,07,29,16,33,27.00
2015,07,29,16,34,27.00
2015,07,29,16,35,27.00
2015,07,29,16,36,27.00
2015,07,29,16,37,27.00
2015,07,29,16,38,26.90
2015,07,29,16,39,26.90
2015,07,29,16,40,26.80
2015,07,29,16,41,26.80
2015,07,29,16,42,26.80
2015,07,29,16,43,26.80
2015,07,29,16,44,26.80
2015,07,29,16,45,26.70
2015,07,29,16,46,26.70
2015,07,29,16,47,26.70
2015,07,29,16,48,26.70
2015,07,29,16,49,26.70
2015,07,29,16,50,26.80
2015,07,29,16,51,26.80
2015,07,29,16,52,26.80
2015,07,29,16,53,26.80
2015,07,29,16,54,26.90
2015,07,29,16,55,27.00
2015,07,29,16,56,27.10
2015,07,29,16,57,27.20
2015,07,29,16,58,27.20
2015,07,29,16,59,27.30
2015,07,29,17,00,27.20
2015,07,29,17,01,27.10
2015,07,29,17,02,27.00
2015,07,29,17,03,26.90
2015,07,29,17,04,26.90
2015,07,29,17,05,26.90
2015,07,29,17,06,26.90
2015,07,29,17,07,26.90
2015,07,29,17,08,27.00
2015,07,29,17,09,27.00
2015,07,29,17,10,27.00
2015,07,29,17,11,27.00
2015,07,29,17,12,27.00
2015,07,29,17,13,27.10
2015,07,29,17,14,27.10
2015,07,29,17,15,27.20
2015,07,29,17,16,27.20
2015,07,29,17,17,27.30
2015,07,29,17,18,27.30
2015,07,29,17,19,27.30